Flag for U.S.A. Weather past 2 weeks in Bismarck, North Dakota, U.S.A.

Now
83 °F

Scattered clouds.


Feels Like: 88 °F
Forecast: 62 / 75 °F
Wind: 17 mph from South

Location: Bismarck Municipal Airport

Current Time: Jul 27, 2015 at 10:47:18 PM

Latest Report: Jul 27, 2015 at 9:52 PM


Visibility: 10 mi

Pressure: 29.65 "Hg (27.97 "Hg at 513m altitude)

Humidity: 68%

Dew point: 71 °F

Location of BismarckLocation

Historic Weather in Bismarck — Graph

°F

Bismarck temperature yesterday

Maximum temperature yesterday: 91 °F (at 3:52 PM)
Minimum temperature yesterday: 62 °F (at 6:52 AM)
Average temperature yesterday: 76 °F

Past Weeks' High & Low Weather Summary

 TemperatureHumidityPressure
High94 °F (Jul 23, 4:52 PM)100% (Jul 14, 1:52 AM)30.03 "Hg (Jul 14, 1:52 AM)
Low51 °F (Jul 21, 4:52 AM)22% (Jul 19, 5:52 PM)29.60 "Hg (Jul 27, 5:52 PM)
Average73 °F68%29.81 "Hg
* Reported Jul 12 8:52 PM — Jul 27 8:52 PM, Bismarck, Weather by CustomWeather, © 2015

Note: Actual official high and low records may vary slightly from our data, if they occured in-between our weather recording intervals... More about our weather records

Advertising

Bismarck weather history for previous 24 hours

 ConditionsComfort  
Time TempWeatherWind HumidityBarometerVisibility
8:52 PM
Mon, Jul 27
83 °FSunny.10 mph70%29.62 "Hg10 mi
7:52 PM86 °FSunny.13 mph63%29.61 "Hg10 mi
6:52 PM88 °FPassing clouds.15 mph55%29.62 "Hg10 mi
5:52 PM92 °FSunny.24 mph43%29.60 "Hg10 mi
3:52 PM92 °FSunny.22 mph43%29.65 "Hg10 mi
2:52 PM91 °FPassing clouds.23 mph52%29.67 "Hg10 mi
1:52 PM89 °FSunny.16 mph52%29.68 "Hg10 mi
12:52 PM86 °FSunny.16 mph57%29.71 "Hg10 mi
11:52 AM84 °FSunny.14 mph57%29.73 "Hg10 mi
10:52 AM82 °FSunny.15 mph56%29.76 "Hg10 mi
9:52 AM79 °FSunny.9 mph58%29.77 "Hg10 mi
8:52 AM73 °FSunny.8 mph64%29.79 "Hg10 mi
7:52 AM70 °FSunny.8 mph68%29.77 "Hg10 mi
6:52 AM68 °FClear.7 mph70%29.75 "Hg10 mi
5:52 AM73 °FClear.8 mph53%29.75 "Hg10 mi
4:52 AM76 °FClear.6 mph45%29.71 "Hg10 mi
3:52 AM76 °FClear.7 mph47%29.68 "Hg10 mi
2:52 AM72 °FClear.24 mph55%29.74 "Hg10 mi
1:52 AM74 °FClear.14 mph48%29.83 "Hg10 mi
12:52 AM76 °FClear.14 mph54%29.83 "Hg10 mi
11:52 PM
Sun, Jul 26
73 °FClear.13 mph71%29.84 "Hg10 mi
10:52 PM74 °FClear.6 mph64%29.87 "Hg10 mi
Weather by CustomWeather, © 2015

See weather overviewHow to use our weather pages